Hourly Weather Ovchinniki

Today, 14 August, Friday

Time Temperature Precipitation Wind Pressure Humidity
00:00 +8°C° 0 mm 2 mps 742 mmHg 87%
01:00 +7°C° 0 mm 2 mps 742 mmHg 91%
02:00 +8°C° 0 mm 1 mps 742 mmHg 95%
03:00 +8°C° 0 mm 1 mps 742 mmHg 96%
04:00 +7°C° 0 mm 2 mps 742 mmHg 96%
05:00 +7°C° 0 mm 2 mps 742 mmHg 96%
06:00 +9°C° 0 mm 2 mps 742 mmHg 88%
07:00 +12°C° 0 mm 2 mps 742 mmHg 79%
08:00 +14°C° 0 mm 2 mps 743 mmHg 70%
09:00 +15°C° 0 mm 2 mps 743 mmHg 64%
10:00 +17°C° 0 mm 2 mps 742 mmHg 58%
11:00 +18°C° 0 mm 2 mps 742 mmHg 52%
12:00 +18°C° 0 mm 2 mps 742 mmHg 52%
13:00 +18°C° 0 mm 2 mps 742 mmHg 52%
14:00 +18°C° 0 mm 2 mps 743 mmHg 51%
15:00 +18°C° 0 mm 2 mps 742 mmHg 54%
16:00 +19°C° 0 mm 1 mps 742 mmHg 57%
17:00 +18°C° 0 mm 1 mps 742 mmHg 60%
18:00 +16°C° 0 mm 1 mps 742 mmHg 65%
19:00 +14°C° 0 mm 1 mps 742 mmHg 70%
20:00 +12°C° 0 mm 1 mps 742 mmHg 76%
21:00 +12°C° 0 mm 1 mps 742 mmHg 79%
22:00 +11°C° 0 mm 1 mps 742 mmHg 82%
23:00 +10°C° 0 mm 1 mps 742 mmHg 85%

Tomorrow, 15 August, Saturday

Time Temperature Precipitation Wind Pressure Humidity
00:00 +10°C° 0 mm 1 mps 743 mmHg 86%
01:00 +10°C° 0 mm 1 mps 743 mmHg 87%
02:00 +10°C° 0 mm 1 mps 743 mmHg 88%
03:00 +10°C° 0 mm 1 mps 743 mmHg 87%
04:00 +10°C° 0 mm 1 mps 743 mmHg 86%
05:00 +10°C° 0 mm 1 mps 742 mmHg 85%
06:00 +12°C° 0 mm 1 mps 742 mmHg 82%
07:00 +13°C° 0 mm 1 mps 742 mmHg 78%
08:00 +14°C° 0 mm 1 mps 742 mmHg 74%
09:00 +15°C° 0.2 mm 1 mps 742 mmHg 75%
10:00 +16°C° 0.2 mm 1 mps 742 mmHg 76%
11:00 +16°C° 0.2 mm 2 mps 742 mmHg 77%
12:00 +16°C° 0.3 mm 2 mps 742 mmHg 82%
13:00 +15°C° 0.3 mm 2 mps 741 mmHg 87%
14:00 +15°C° 0.3 mm 2 mps 741 mmHg 93%
15:00 +15°C° 0.1 mm 2 mps 741 mmHg 93%
16:00 +15°C° 0.1 mm 1 mps 741 mmHg 94%
17:00 +15°C° 0.1 mm 1 mps 741 mmHg 95%
18:00 +14°C° 0 mm 1 mps 741 mmHg 95%
19:00 +14°C° 0 mm 1 mps 740 mmHg 96%
20:00 +13°C° 0 mm 1 mps 740 mmHg 97%
21:00 +13°C° 0 mm 1 mps 740 mmHg 97%
22:00 +12°C° 0 mm 1 mps 740 mmHg 97%
23:00 +12°C° 0 mm 1 mps 740 mmHg 96%

Day after tomorrow, 16 August, Sunday

Time Temperature Precipitation Wind Pressure Humidity
00:00 +12°C° 0 mm 1 mps 740 mmHg 97%
01:00 +10°C° 0 mm 0 mps 740 mmHg 97%
02:00 +10°C° 0 mm 0 mps 740 mmHg 97%
03:00 +11°C° 0 mm 1 mps 740 mmHg 97%
04:00 +11°C° 0 mm 1 mps 740 mmHg 97%
05:00 +11°C° 0 mm 1 mps 740 mmHg 97%
06:00 +13°C° 0 mm 1 mps 740 mmHg 94%
07:00 +15°C° 0 mm 1 mps 740 mmHg 92%
08:00 +18°C° 0 mm 1 mps 740 mmHg 89%
09:00 +18°C° 0 mm 2 mps 740 mmHg 81%
10:00 +20°C° 0 mm 2 mps 740 mmHg 74%
11:00 +23°C° 0 mm 2 mps 740 mmHg 66%
12:00 +24°C° 0 mm 3 mps 740 mmHg 61%
13:00 +25°C° 0 mm 3 mps 740 mmHg 56%
14:00 +26°C° 0 mm 3 mps 739 mmHg 51%
15:00 +25°C° 0 mm 3 mps 739 mmHg 57%
16:00 +24°C° 0 mm 2 mps 739 mmHg 62%
17:00 +24°C° 0 mm 2 mps 739 mmHg 68%
18:00 +21°C° 0 mm 2 mps 739 mmHg 74%
19:00 +19°C° 0 mm 2 mps 739 mmHg 80%
20:00 +17°C° 0 mm 2 mps 739 mmHg 86%
21:00 +17°C° 0 mm 2 mps 739 mmHg 87%
22:00 +16°C° 0 mm 2 mps 739 mmHg 88%
23:00 +16°C° 0 mm 2 mps 739 mmHg 89%

17 August, Monday

Time Temperature Precipitation Wind Pressure Humidity
00:00 +16°C° 0.1 mm 2 mps 739 mmHg 91%
01:00 +16°C° 0.1 mm 2 mps 738 mmHg 92%
02:00 +16°C° 0.1 mm 3 mps 738 mmHg 94%
03:00 +16°C° 0 mm 2 mps 738 mmHg 95%
04:00 +15°C° 0 mm 2 mps 738 mmHg 96%
05:00 +15°C° 0 mm 2 mps 738 mmHg 97%
06:00 +16°C° 0 mm 2 mps 738 mmHg 92%
07:00 +18°C° 0 mm 3 mps 739 mmHg 88%
08:00 +19°C° 0 mm 3 mps 739 mmHg 83%
09:00 +20°C° 0.2 mm 3 mps 739 mmHg 77%
10:00 +22°C° 0.2 mm 3 mps 739 mmHg 70%
11:00 +24°C° 0.2 mm 3 mps 739 mmHg 64%
12:00 +23°C° 0.1 mm 4 mps 739 mmHg 59%
13:00 +25°C° 0.1 mm 4 mps 739 mmHg 54%
14:00 +25°C° 0.1 mm 4 mps 738 mmHg 50%
15:00 +25°C° 0 mm 3 mps 738 mmHg 53%
16:00 +24°C° 0 mm 3 mps 738 mmHg 55%
17:00 +23°C° 0 mm 2 mps 738 mmHg 58%
18:00 +20°C° 0 mm 2 mps 738 mmHg 64%
19:00 +18°C° 0 mm 2 mps 738 mmHg 70%
20:00 +16°C° 0 mm 2 mps 739 mmHg 76%
21:00 +15°C° 0 mm 2 mps 739 mmHg 76%
22:00 +14°C° 0 mm 1 mps 739 mmHg 76%
23:00 +13°C° 0 mm 1 mps 739 mmHg 76%

18 August, Tuesday

Time Temperature Precipitation Wind Pressure Humidity
00:00 +12°C° 0 mm 1 mps 739 mmHg 77%
01:00 +11°C° 0 mm 0 mps 739 mmHg 78%
02:00 +11°C° 0 mm 0 mps 739 mmHg 79%
03:00 +11°C° 0 mm 0 mps 739 mmHg 79%
04:00 +11°C° 0 mm 0 mps 739 mmHg 78%
05:00 +12°C° 0 mm 1 mps 738 mmHg 78%
06:00 +14°C° 0 mm 1 mps 738 mmHg 73%
07:00 +16°C° 0 mm 1 mps 739 mmHg 68%
08:00 +19°C° 0 mm 1 mps 739 mmHg 63%
09:00 +21°C° 0 mm 1 mps 738 mmHg 59%
10:00 +22°C° 0 mm 1 mps 738 mmHg 55%
11:00 +24°C° 0 mm 1 mps 738 mmHg 51%
12:00 +24°C° 0 mm 2 mps 738 mmHg 50%
13:00 +25°C° 0 mm 2 mps 737 mmHg 48%
14:00 +25°C° 0 mm 2 mps 737 mmHg 47%
15:00 +24°C° 0 mm 2 mps 737 mmHg 54%
16:00 +24°C° 0 mm 2 mps 737 mmHg 61%
17:00 +23°C° 0 mm 2 mps 736 mmHg 68%
18:00 +21°C° 0 mm 2 mps 736 mmHg 71%
19:00 +19°C° 0 mm 2 mps 736 mmHg 74%
20:00 +18°C° 0 mm 2 mps 736 mmHg 77%
21:00 +18°C° 0 mm 2 mps 736 mmHg 79%
22:00 +17°C° 0 mm 2 mps 736 mmHg 80%
23:00 +17°C° 0 mm 2 mps 736 mmHg 82%

19 August, Wednesday

Time Temperature Precipitation Wind Pressure Humidity
00:00 +16°C° 0 mm 1 mps 736 mmHg 85%
01:00 +16°C° 0 mm 1 mps 736 mmHg 87%
02:00 +15°C° 0 mm 1 mps 736 mmHg 89%
03:00 +15°C° 0 mm 1 mps 736 mmHg 90%
04:00 +14°C° 0 mm 1 mps 736 mmHg 91%
05:00 +14°C° 0 mm 1 mps 736 mmHg 92%
06:00 +16°C° 0 mm 1 mps 736 mmHg 85%
07:00 +19°C° 0 mm 1 mps 736 mmHg 79%
08:00 +20°C° 0 mm 1 mps 736 mmHg 73%
09:00 +22°C° 0 mm 1 mps 736 mmHg 66%
10:00 +23°C° 0 mm 1 mps 736 mmHg 59%
11:00 +25°C° 0 mm 1 mps 736 mmHg 52%
12:00 +25°C° 0 mm 1 mps 736 mmHg 50%
13:00 +25°C° 0 mm 1 mps 736 mmHg 47%
14:00 +26°C° 0 mm 1 mps 736 mmHg 44%
15:00 +25°C° 0 mm 1 mps 736 mmHg 49%
16:00 +24°C° 0 mm 1 mps 736 mmHg 54%
17:00 +24°C° 0 mm 1 mps 736 mmHg 59%
18:00 +22°C° 0 mm 1 mps 735 mmHg 64%
19:00 +20°C° 0 mm 1 mps 735 mmHg 68%
20:00 +18°C° 0 mm 1 mps 735 mmHg 73%
21:00 +16°C° 0 mm 1 mps 735 mmHg 75%
22:00 +16°C° 0 mm 1 mps 735 mmHg 77%
23:00 +15°C° 0 mm 1 mps 735 mmHg 79%
Show more